Weather Roundup
Issued by NWS Chicago, IL

Home | Current Version | Previous Version | Text Only | Print | Product List | Glossary Off
Versions: 1 2 3 4 5 6 7 8 9 10 11 12 13 14 15 16 17 18 19 20 21 22 23 24 25 26 27 28 29 30 31 32 33 34 35 36 37 38 39 40 41 42 43 44 45 46 47 48 49 50

000
NZUS59 KLOT 290012
HRRLOT

CHICAGO AREA WEATHER ROUNDUP
NATIONAL WEATHER SERVICE CHICAGO/ROMEOVILLE IL
700 PM CDT WED SEP 28 2016

NOTE: "FAIR" INDICATES FEW OR NO CLOUDS BELOW 12,000 FEET WITH NO
SIGNIFICANT WEATHER AND/OR OBSTRUCTIONS TO VISIBILITY.

* THESE STATIONS ARE NOT UNDER NWS QUALITY CONTROL. THEY ALSO MAY NOT
  REPORT WEATHER SUCH AS PRECIPITATION OR FOG.

ILZ005-006-012>014-019>023-290100-
NORTHEAST ILLINOIS

CITY           SKY/WX    TMP DP  RH WIND       PRES   REMARKS
OHARE          TSTM      55  50  83 NE18      30.07R
6HR MIN TEMP:  55; 6HR MAX TEMP:  59; 6HR PCP:  0.13;

MIDWAY         RAIN      57  52  83 N13       30.04R
6HR MIN TEMP:  56; 6HR MAX TEMP:  60; 6HR PCP:  0.26;

AURORA         PTCLDY    59  46  62 N15       30.07R
6HR MIN TEMP:  59; 6HR MAX TEMP:  65;

LANSING*       RAIN      57  51  80 NE15G28   30.01R
JOLIET*        CLOUDY    58  53  84 N7        30.06R
WAUKEGAN       RAIN      57  53  86 N18G32    30.08R FOG
6HR MIN TEMP:  55; 6HR MAX TEMP:  63; 6HR PCP:  0.07;

DUPAGE AIRPORT MOCLDY    58  48  69 N13       30.06R
6HR MIN TEMP:  58; 6HR MAX TEMP:  64; 6HR PCP: TRACE;

WHEELING       RAIN      54  49  83 N12G20    30.10R
6HR MIN TEMP:  54; 6HR MAX TEMP:  60; 6HR PCP:  0.08;

KANKAKEE*      CLOUDY    56  51  84 NW8       30.02R
MORRIS*        MOCLDY    55  51  89 CALM      30.04R
LEWIS AIRPORT* RAIN      56  54  93 N10G16    30.06R
NORTHERLY ISL    N/A     57  54  89 N10         N/A
$$

WIZ051-052-058>065-066-070>072-290100-
SOUTHEAST WISCONSIN

CITY           SKY/WX    TMP DP  RH WIND       PRES   REMARKS
MILWAUKEE      PTCLDY    60  51  72 N17G28    30.10R
6HR MIN TEMP:  58; 6HR MAX TEMP:  62; 6HR PCP: TRACE;

KENOSHA*       LGT RAIN  59  51  75 N17G28    30.11R
RACINE*        LGT RAIN  56  50  80 N8        30.12R
BURLINGTON     CLEAR     56  46  71 N9        30.12R
WAUKESHA       CLEAR     55  46  71 N12       30.14R
WEST BEND      CLEAR     55  48  76 N5        30.14R
$$

INZ001>003-010>013-019-020-290100-
NORTHWEST INDIANA

CITY           SKY/WX    TMP DP  RH WIND       PRES   REMARKS
GARY*          CLOUDY    59  52  77 N14G32    30.11R
MICHIGAN CITY* NOT AVBL
RENSSELAER*    NOT AVBL
VALPARAISO     CLOUDY    57  50  77 CALM      29.99R
$$

LMZ740>746-290100-
SOUTHERN LAKE MICHIGAN

STATION/POSITION TIME  SKY/WX   TEMP WIND        PRES    VSBY
                                AIR  DIR/SP/G
                 (UTC)          (F)  (DEG/KT/KT) (MB)    (MI)
HARRISON CRIB    2340            61   20/ 16/ 18   N/A
BURNHAM HARBOR   0000            58  350/ 11/ 29   N/A
CALUMET HARBOR   2348                 20/ 12/ 17 1016.1R
BURNS HARBOR     2340            64   40/ 19/ 26 1015.9R
MICHIGAN CITY    2340            61   30/ 19/ 20   N/A
$$

ABBREVIATIONS USED IN REMARKS
   TC - TEMPERATURE IN CELSIUS
  WCI - WIND CHILL INDEX
   HX - HEAT INDEX
  VSB - VISIBILITY
$$




USA.gov is the U.S. government's official web portal to all federal, state and local government web resources and services.